Theta_e
314 313 312 311 310 309 309 309 309 309 310 310 310 310 311 311 311 314 319 323 324 324 332 335 334 337 340 341 341 340 343 341 340 340 342 342 342 339 340 342 340 342 343 344 345
314 314 312 312 311 309 309 309 309 309 310 310 311 311 311 311 319 321 321 318 319 324 334 334 335 335 341 340 341 343 344 343 341 340 341 340 342 344 343 342 344 345 346 345 345
315 314 313 312 311 309 309 309 310 310 310 311 311 311 312 312 325 327 321 318 320 323 332 331 333 337 339 341 341 342 348 340 341 341 340 342 341 341 344 346 343 345 349 346 345
315 315 314 312 312 310 309 309 310 310 311 311 311 312 313 322 331 325 319 320 325 327 330 331 332 336 340 343 341 344 340 341 341 342 342 343 341 343 343 343 345 342 347 346 346
315 316 315 314 312 311 309 309 310 311 311 312 312 313 320 325 333 319 318 323 327 330 330 332 334 336 340 340 341 342 341 341 340 341 342 342 341 342 342 342 346 343 346 348 346
315 317 317 314 313 312 310 310 310 311 311 312 313 313 324 332 332 321 324 326 329 328 330 331 333 335 338 338 341 339 339 339 339 340 342 342 342 341 341 342 347 345 346 347 345
315 317 318 316 314 312 311 310 311 311 312 313 314 319 329 331 332 325 326 327 328 327 330 330 331 335 336 337 335 337 338 338 339 340 343 344 345 344 343 344 347 347 346 346 345
315 316 318 318 314 312 311 311 311 312 313 315 315 324 332 327 331 331 328 328 327 327 328 329 330 333 335 336 337 338 339 344 340 339 342 345 343 345 343 346 347 346 346 346 344
315 316 318 319 315 312 311 311 311 313 315 314 321 329 331 323 329 330 329 328 327 328 327 329 330 334 334 336 338 339 340 341 338 339 339 347 341 349 347 347 347 345 346 346 344
314 316 318 320 317 312 311 311 313 317 316 322 326 329 329 328 329 329 328 328 329 329 328 331 334 335 335 335 335 333 331 332 334 339 340 338 342 340 350 349 348 346 345 346 345
314 316 318 320 318 313 317 322 326 329 326 324 326 328 328 327 327 329 328 328 329 329 331 333 335 335 335 334 330 330 330 331 331 334 336 336 337 338 340 351 350 347 346 346 345
313 316 319 322 318 314 312 323 325 324 328 324 326 327 326 327 329 330 328 329 331 333 333 334 333 332 332 330 329 329 330 331 332 332 337 336 336 337 338 341 343 346 347 346 344
313 317 320 322 317 313 318 321 323 323 327 327 325 325 327 327 327 330 329 330 333 333 334 335 334 331 332 332 331 330 332 330 330 330 336 337 345 340 335 345 344 345 345 346 345
313 317 320 322 318 320 319 320 320 323 330 327 325 324 326 327 327 328 329 330 332 333 332 335 332 332 332 332 331 331 330 329 330 331 335 339 342 342 341 343 344 345 346 346 345
314 318 321 321 323 321 324 323 322 323 337 329 326 326 325 327 327 328 328 329 330 330 331 332 333 332 333 332 332 331 331 330 331 332 339 339 342 343 340 344 346 340 338 341 343
316 319 323 321 321 323 322 321 325 329 333 332 329 325 325 324 325 327 328 328 329 329 329 330 330 331 331 331 329 330 330 330 332 339 344 342 342 342 342 338 335 333 335 338 340
318 323 323 323 325 321 321 326 330 331 330 331 333 332 331 327 325 325 327 328 329 330 330 329 329 329 330 329 329 329 336 343 344 339 339 339 339 342 336 334 333 333 333 338 341
323 323 325 323 323 321 324 329 333 328 330 333 332 332 332 332 330 325 324 326 327 329 329 330 334 331 330 330 330 333 341 343 340 345 338 331 341 343 334 333 333 334 334 336 338
325 326 325 322 321 322 329 331 330 327 332 333 333 332 334 333 331 333 331 331 328 329 332 334 334 330 331 331 330 331 342 339 336 333 336 337 338 335 335 333 332 334 336 336 336
325 327 321 322 321 323 330 330 329 328 330 332 333 333 334 334 334 333 333 335 334 333 334 334 333 331 332 334 331 332 334 335 333 337 339 339 337 339 335 334 334 333 335 336 335
328 326 323 320 321 326 331 330 328 326 328 329 331 331 331 333 333 333 331 335 336 336 337 335 335 334 333 335 336 336 336 338 342 337 340 342 340 334 335 334 335 333 333 334 334
332 329 321 321 326 328 329 329 319 326 326 327 331 331 332 334 336 337 336 337 337 336 335 338 340 338 333 337 336 333 335 336 337 337 340 340 338 334 333 333 333 331 333 334 333
336 328 321 322 327 329 327 328 326 326 327 327 328 330 334 335 339 338 337 337 336 338 341 342 340 340 337 341 339 335 332 334 336 338 339 343 343 334 331 331 330 329 329 330 329
338 326 323 323 327 331 329 328 328 328 327 327 327 331 335 335 337 339 338 338 336 336 335 339 344 343 340 339 336 337 335 333 334 337 337 338 339 333 330 329 328 328 327 327 326
342 341 332 323 325 327 331 330 332 332 332 332 331 330 334 338 336 338 337 338 338 338 334 337 344 337 336 335 333 335 334 332 333 334 336 335 334 331 328 325 325 325 325 325 325
345 347 328 335 334 331 327 332 335 334 334 333 333 331 334 336 336 339 336 338 340 341 339 342 344 339 339 335 334 334 333 332 333 333 332 330 332 328 325 323 322 321 321 321 321
335 341 346 335 336 334 336 337 335 334 333 333 336 338 337 336 335 337 337 338 339 339 343 343 344 343 340 340 337 334 336 334 333 332 331 332 331 327 323 322 321 320 320 320 320
Wind_Speed
17 15 12 9 6 3 3 2 3 4 4 5 5 6 7 8 8 8 13 4 6 12 11 11 12 12 12 6 7 11 7 3 12 5 8 9 9 4 3 6 1 4 8 10 23
18 15 12 10 7 3 3 3 3 4 4 4 5 6 6 8 9 16 13 7 9 14 11 11 10 7 12 4 4 14 0 5 11 9 4 11 7 10 5 6 6 5 6 15 21
19 16 13 10 7 3 3 3 4 4 5 4 5 6 6 5 11 18 18 11 12 16 14 11 7 10 11 7 4 2 2 4 10 4 3 5 8 4 6 4 6 11 13 14 17
20 18 14 11 8 4 3 3 4 4 5 5 5 6 6 5 7 9 16 12 12 15 13 9 9 14 3 3 4 3 2 3 8 2 5 8 6 8 8 4 5 4 14 17 16
21 20 16 11 9 5 4 4 4 5 5 5 6 5 2 9 2 15 17 14 15 12 13 10 9 11 6 3 8 8 5 0 4 4 6 7 8 9 7 5 6 5 10 16 15
21 21 18 13 9 6 4 4 4 5 5 6 6 5 6 15 8 15 16 17 13 13 13 10 6 8 7 3 3 4 2 4 3 5 3 8 10 9 7 6 8 9 12 14 15
21 20 19 14 10 6 3 4 4 5 5 6 6 4 10 4 5 12 16 16 12 10 9 7 6 11 6 2 4 2 9 8 10 6 5 6 15 16 8 9 10 11 11 13 14
21 21 19 16 11 7 3 3 4 5 6 6 5 5 6 5 5 11 14 13 11 10 8 5 8 12 6 1 12 12 8 13 9 5 4 5 9 9 10 10 10 12 11 12 14
21 21 19 17 11 6 3 2 3 3 3 3 4 8 8 8 10 11 14 13 12 9 8 9 12 13 5 12 10 12 9 8 9 7 5 9 13 8 2 5 9 12 12 12 13
20 22 20 17 10 5 2 2 3 2 2 4 10 7 9 13 12 12 14 8 11 9 10 10 10 12 15 8 3 8 12 7 8 5 8 12 14 15 11 9 9 12 11 13 15
21 22 21 17 8 3 2 3 6 6 14 11 15 20 16 7 12 13 14 14 15 11 15 15 12 14 8 16 13 9 10 13 10 4 4 13 15 12 6 11 9 11 12 12 14
21 22 23 15 7 5 6 8 7 7 8 17 10 17 6 14 14 15 16 14 14 16 14 14 13 18 2 8 9 10 17 12 13 7 8 15 18 14 15 8 11 11 12 12 13
22 23 24 12 7 5 11 9 4 9 8 14 15 15 16 13 16 17 18 19 17 18 12 9 22 4 18 17 15 11 15 13 17 14 12 18 14 21 8 7 6 6 9 11 11
23 24 22 9 2 3 11 7 6 6 6 11 11 13 16 9 18 19 24 21 22 22 16 18 24 17 12 17 13 17 8 16 17 16 14 12 14 20 18 13 23 11 5 8 11
24 26 18 5 8 9 5 2 7 4 5 8 11 6 15 22 19 18 15 18 21 19 13 17 19 24 18 14 24 17 17 13 17 18 24 12 4 5 25 8 11 7 9 5 7
27 28 12 1 6 6 2 5 4 7 4 7 7 10 13 14 20 22 20 19 18 18 21 22 19 9 16 21 13 19 15 18 22 4 5 12 2 6 10 12 13 13 11 9 5
31 23 8 6 1 2 5 8 7 9 4 6 6 6 12 8 12 20 18 16 16 19 21 21 18 20 17 17 15 22 13 10 19 11 6 4 11 8 14 12 12 12 11 6 5
26 11 6 9 4 3 6 9 10 5 4 5 4 5 12 3 10 14 16 17 21 22 20 14 18 23 13 19 19 3 13 10 10 7 18 12 1 1 8 10 9 8 8 4 2
12 2 6 4 7 5 7 10 7 3 4 5 5 12 7 8 8 10 17 17 17 7 14 18 25 12 18 18 10 13 4 24 10 16 14 5 7 17 3 7 12 10 7 9 4
7 7 8 5 7 8 8 14 5 3 7 6 13 3 14 2 3 9 12 11 9 12 11 16 20 17 7 15 12 11 16 12 8 10 15 7 8 5 10 10 12 12 6 7 8
5 5 5 6 8 6 9 9 4 4 6 8 10 5 9 9 10 15 17 7 9 11 8 12 12 16 4 9 6 3 11 4 9 4 7 9 1 7 9 11 13 13 11 6 4
7 4 8 9 8 9 11 2 4 9 5 9 7 11 10 11 9 14 7 2 3 5 8 3 5 12 11 26 28 12 10 10 7 9 7 13 3 8 9 11 11 12 12 11 9
4 3 7 9 8 9 9 6 5 8 8 5 9 9 8 9 5 3 6 5 2 3 8 11 6 9 14 7 12 10 16 8 6 7 10 5 2 5 9 10 10 11 9 8 7
5 5 5 8 11 9 4 7 8 7 7 13 10 9 11 11 11 7 11 9 6 8 8 4 9 11 13 14 0 7 8 6 3 7 6 1 12 8 10 11 9 8 6 6 4
5 2 4 8 11 8 0 8 9 7 7 5 10 13 14 11 15 14 11 12 7 7 3 1 13 14 14 6 7 2 4 4 7 4 8 5 6 10 9 9 9 7 6 7 5
5 5 1 1 3 5 5 10 4 8 7 10 10 15 12 11 15 16 16 10 1 12 9 5 9 10 15 3 8 4 2 4 6 3 9 4 9 5 5 6 7 6 6 3 2
11 7 5 4 7 9 2 3 7 10 11 7 9 14 16 16 7 8 8 10 8 8 6 6 7 6 12 9 16 6 5 4 3 4 5 7 8 5 7 6 5 5 4 4 5
Wind_Direction
0 359 356 351 341 312 283 265 257 253 257 260 266 271 276 277 270 242 228 205 190 177 182 210 224 235 238 245 267 265 347 235 117 64 125 149 150 119 113 152 199 74 29 97 159
1 360 357 351 340 307 272 264 256 261 255 266 271 278 280 286 264 234 206 209 214 187 202 206 212 222 237 236 223 260 56 156 32 71 64 138 279 135 224 154 170 150 93 133 159
4 359 357 350 341 309 262 254 262 262 265 267 275 283 280 279 254 221 198 211 199 193 235 238 284 263 268 240 166 65 226 58 118 49 325 299 167 180 223 186 274 184 152 161 172
5 1 356 351 340 315 271 256 258 265 269 272 278 286 287 238 214 120 166 184 187 191 242 234 246 245 245 137 79 298 85 1 64 87 280 271 301 162 225 280 64 125 146 171 183
7 3 356 351 341 318 280 263 260 262 268 277 285 286 254 217 283 149 156 164 171 203 225 225 245 264 70 134 173 250 126 275 114 270 264 285 251 288 246 202 153 181 169 180 189
6 4 359 350 344 323 287 270 268 272 276 281 281 279 246 245 104 154 158 168 193 218 223 240 294 349 291 48 8 5 350 290 246 274 262 280 256 219 238 225 184 198 192 189 192
3 3 360 350 341 325 293 272 269 271 273 280 273 258 257 331 142 161 176 191 211 228 261 249 302 287 333 167 10 271 256 257 200 227 262 283 257 229 222 172 209 210 209 198 195
358 0 358 352 343 329 293 271 268 272 280 277 240 240 263 140 169 179 186 202 217 239 274 299 284 284 279 64 242 234 206 297 133 168 165 246 306 65 172 169 231 215 219 207 197
355 356 355 352 344 325 289 258 261 271 278 197 207 230 228 145 194 187 196 200 203 220 238 281 260 261 213 240 244 334 249 229 172 170 207 218 295 82 105 215 240 237 217 213 209
350 351 350 348 341 316 260 207 216 217 210 241 267 242 239 211 161 176 189 208 198 212 228 244 241 237 224 294 16 293 329 317 314 116 217 254 249 270 183 216 246 256 229 215 213
346 346 346 343 331 289 184 188 207 195 216 216 187 226 175 132 148 187 189 204 208 212 231 202 238 239 104 240 306 323 311 293 299 156 265 280 273 272 217 201 243 250 250 229 223
342 342 345 339 318 274 235 248 28 352 252 221 253 233 293 174 194 186 184 205 209 228 237 284 228 264 288 288 296 292 279 318 282 268 269 268 270 279 279 259 222 226 231 237 221
341 339 345 337 310 245 226 236 300 335 254 176 215 224 216 226 237 181 199 211 224 231 214 243 283 142 290 295 276 249 309 308 311 298 252 265 320 266 307 177 208 209 236 224 231
340 336 342 329 279 182 221 228 259 312 265 143 199 226 221 231 236 245 188 231 227 243 246 216 238 287 222 263 278 280 282 289 295 286 274 192 286 345 312 34 4 180 199 240 234
337 334 335 288 313 229 71 264 290 239 259 141 136 83 217 217 235 213 231 224 254 265 285 275 220 257 351 311 288 286 294 296 288 283 350 353 17 236 252 132 189 86 11 243 231
336 330 328 312 237 262 272 293 228 236 249 145 161 197 206 224 233 244 199 229 259 259 269 257 263 224 248 250 266 288 289 273 267 81 259 212 48 281 18 39 29 14 30 6 353
334 327 281 231 67 228 274 218 231 258 87 181 207 208 211 192 217 225 222 222 231 244 245 252 283 283 264 259 259 254 30 346 289 245 278 80 271 27 36 38 32 22 5 49 20
334 325 275 209 249 262 239 229 264 346 235 66 271 232 249 130 220 209 231 243 239 244 265 265 243 239 239 295 270 243 157 216 334 330 269 304 320 104 4 57 41 43 7 59 57
337 303 225 209 217 235 242 231 235 304 27 271 228 262 196 180 263 201 240 238 244 281 274 282 288 341 300 223 268 283 144 231 296 301 321 16 360 53 341 11 17 23 58 355 224
325 235 152 187 189 226 238 259 340 310 298 248 270 33 310 26 247 281 293 157 301 309 315 275 297 191 250 312 261 263 337 295 280 289 286 335 17 28 23 9 7 359 60 98 284
250 225 114 168 175 231 236 240 197 134 302 284 282 290 289 286 309 292 292 72 333 316 319 288 278 295 288 259 303 244 233 117 233 344 327 304 143 54 11 20 7 356 19 61 93
285 239 149 168 210 226 238 259 22 282 234 257 257 279 286 315 303 301 313 262 57 268 263 316 294 256 254 38 1 332 347 345 320 299 199 259 119 87 28 23 21 7 34 23 23
273 42 165 205 227 219 237 271 237 274 267 271 254 252 287 284 296 244 305 100 267 24 16 359 252 255 238 37 349 265 257 278 251 247 284 12 125 46 41 25 36 14 40 43 47
276 188 149 207 260 300 217 238 261 247 265 277 267 276 269 262 231 261 262 151 180 137 143 344 291 289 296 342 33 214 229 306 298 280 330 357 173 60 30 25 21 22 20 66 106
236 43 8 190 217 228 147 312 290 312 193 283 263 247 256 261 277 248 289 163 168 199 164 120 281 290 287 293 283 292 316 308 299 348 305 24 17 35 23 9 7 2 6 31 1
315 335 286 53 310 219 200 262 269 305 324 294 238 273 299 267 267 294 313 332 316 187 196 187 266 266 270 299 260 314 90 244 240 45 303 318 101 39 49 351 3 12 353 12 18
356 283 271 124 190 239 317 352 320 317 296 305 320 309 284 295 259 316 309 301 284 296 183 206 277 253 274 164 228 250 107 270 325 158 324 330 25 358 350 359 352 353 16 356 3